Time,TemperatureF,DewpointF,PressureIn,WindDirection,WindDirectionDegrees,WindSpeedMPH,WindSpeedGustMPH,Humidity,HourlyPrecipIn,Conditions,Clouds,dailyrainin,SoftwareType,DateUTC
2013-05-26 00:01:00,53.4,44.2,30.08,WNW,299,2.0,3.0,71,0.00,,,0.00,Wunderground v.1.15,2013-05-26 05:01:00,
2013-05-26 00:06:00,53.3,44.1,30.08,NE,46,2.0,3.0,71,0.00,,,0.00,Wunderground v.1.15,2013-05-26 05:06:00,
2013-05-26 00:11:00,53.3,44.1,30.07,NW,309,2.0,3.0,71,0.00,,,0.00,Wunderground v.1.15,2013-05-26 05:11:00,
2013-05-26 00:16:00,53.3,44.1,30.07,NW,324,2.0,3.0,71,0.00,,,0.00,Wunderground v.1.15,2013-05-26 05:16:00,
2013-05-26 00:21:00,53.2,44.0,30.07,NE,39,2.0,2.0,71,0.00,,,0.00,Wunderground v.1.15,2013-05-26 05:21:00,
2013-05-26 00:27:00,53.1,44.3,30.07,NNW,339,1.0,3.0,72,0.00,,,0.00,Wunderground v.1.15,2013-05-26 05:27:00,
2013-05-26 00:32:00,52.9,44.1,30.06,NNW,330,1.0,2.0,72,0.00,,,0.00,Wunderground v.1.15,2013-05-26 05:32:00,
2013-05-26 00:37:00,52.8,44.0,30.06,NNE,15,1.0,3.0,72,0.00,,,0.00,Wunderground v.1.15,2013-05-26 05:37:00,
2013-05-26 00:42:00,52.7,43.9,30.06,North,11,2.0,3.0,72,0.00,,,0.00,Wunderground v.1.15,2013-05-26 05:42:00,
2013-05-26 00:47:00,52.6,43.8,30.07,North,7,2.0,4.0,72,0.00,,,0.00,Wunderground v.1.15,2013-05-26 05:47:00,
2013-05-26 00:53:00,52.6,44.2,30.07,NNW,333,1.0,2.0,73,0.00,,,0.00,Wunderground v.1.15,2013-05-26 05:53:00,
2013-05-26 00:58:00,52.6,44.2,30.06,North,354,2.0,3.0,73,0.00,,,0.00,Wunderground v.1.15,2013-05-26 05:58:00,
2013-05-26 01:04:00,52.6,44.2,30.06,NNE,16,2.0,3.0,73,0.00,,,0.00,Wunderground v.1.15,2013-05-26 06:04:00,
2013-05-26 01:09:00,52.7,44.3,30.07,NW,315,2.0,6.0,73,0.00,,,0.00,Wunderground v.1.15,2013-05-26 06:09:00,
2013-05-26 01:15:00,52.9,44.1,30.08,North,1,2.0,4.0,72,0.00,,,0.00,Wunderground v.1.15,2013-05-26 06:15:00,
2013-05-26 01:20:00,52.9,44.1,30.07,NE,35,2.0,2.0,72,0.00,,,0.00,Wunderground v.1.15,2013-05-26 06:20:00,
2013-05-26 01:25:00,53.0,44.2,30.07,NNE,20,2.0,3.0,72,0.00,,,0.00,Wunderground v.1.15,2013-05-26 06:25:00,
2013-05-26 01:30:00,53.0,44.6,30.07,NNE,28,2.0,2.0,73,0.00,,,0.00,Wunderground v.1.15,2013-05-26 06:30:00,
2013-05-26 01:35:00,52.9,44.5,30.07,NNW,333,2.0,3.0,73,0.00,,,0.00,Wunderground v.1.15,2013-05-26 06:35:00,
2013-05-26 01:41:00,52.8,44.4,30.06,NE,50,2.0,2.0,73,0.00,,,0.00,Wunderground v.1.15,2013-05-26 06:41:00,
2013-05-26 01:46:00,52.7,44.6,30.05,NNW,328,2.0,2.0,74,0.00,,,0.00,Wunderground v.1.15,2013-05-26 06:46:00,
2013-05-26 01:51:00,52.6,44.5,30.06,NW,319,2.0,2.0,74,0.00,,,0.00,Wunderground v.1.15,2013-05-26 06:51:00,
2013-05-26 01:56:00,52.4,44.7,30.06,NW,309,1.0,2.0,75,0.00,,,0.00,Wunderground v.1.15,2013-05-26 06:56:00,
2013-05-26 02:01:00,52.2,44.9,30.06,NE,50,1.0,1.0,76,0.00,,,0.00,Wunderground v.1.15,2013-05-26 07:01:00,
2013-05-26 02:06:00,52.1,44.8,30.06,NW,316,1.0,2.0,76,0.00,,,0.00,Wunderground v.1.15,2013-05-26 07:06:00,
2013-05-26 02:11:00,51.9,44.6,30.07,NW,324,1.0,1.0,76,0.00,,,0.00,Wunderground v.1.15,2013-05-26 07:11:00,
2013-05-26 02:16:00,51.8,44.8,30.06,NE,46,1.0,3.0,77,0.00,,,0.00,Wunderground v.1.15,2013-05-26 07:16:00,
2013-05-26 02:21:00,51.6,44.6,30.06,NE,56,1.0,2.0,77,0.00,,,0.00,Wunderground v.1.15,2013-05-26 07:21:00,
2013-05-26 02:26:00,51.5,44.9,30.05,NNW,330,1.0,2.0,78,0.00,,,0.00,Wunderground v.1.15,2013-05-26 07:26:00,
2013-05-26 02:31:00,51.3,44.7,30.03,NNW,327,1.0,2.0,78,0.00,,,0.00,Wunderground v.1.15,2013-05-26 07:31:00,
2013-05-26 02:37:00,51.1,44.5,30.04,NNW,340,1.0,2.0,78,0.00,,,0.00,Wunderground v.1.15,2013-05-26 07:37:00,
2013-05-26 02:42:00,50.9,44.6,30.05,NNE,15,1.0,1.0,79,0.00,,,0.00,Wunderground v.1.15,2013-05-26 07:42:00,
2013-05-26 02:47:00,50.8,44.5,30.05,NNE,19,1.0,1.0,79,0.00,,,0.00,Wunderground v.1.15,2013-05-26 07:47:00,
2013-05-26 02:52:00,50.7,44.4,30.03,NE,36,1.0,2.0,79,0.00,,,0.00,Wunderground v.1.15,2013-05-26 07:52:00,
2013-05-26 02:57:00,50.5,44.6,30.05,NW,321,1.0,2.0,80,0.00,,,0.00,Wunderground v.1.15,2013-05-26 07:57:00,
2013-05-26 03:03:00,50.4,44.5,30.04,NW,316,1.0,1.0,80,0.00,,,0.00,Wunderground v.1.15,2013-05-26 08:03:00,
2013-05-26 03:08:00,50.3,44.4,30.04,NNW,342,1.0,1.0,80,0.00,,,0.00,Wunderground v.1.15,2013-05-26 08:08:00,
2013-05-26 03:13:00,50.3,44.4,30.04,WNW,293,1.0,3.0,80,0.00,,,0.00,Wunderground v.1.15,2013-05-26 08:13:00,
2013-05-26 03:18:00,50.1,44.2,30.04,NNE,20,0.0,3.0,80,0.00,,,0.00,Wunderground v.1.15,2013-05-26 08:18:00,
2013-05-26 03:23:00,50.1,44.2,30.04,NNW,345,1.0,1.0,80,0.00,,,0.00,Wunderground v.1.15,2013-05-26 08:23:00,
2013-05-26 03:29:00,50.1,44.2,30.04,NNE,19,1.0,2.0,80,0.00,,,0.00,Wunderground v.1.15,2013-05-26 08:29:00,
2013-05-26 03:34:00,50.1,44.2,30.04,WNW,287,1.0,2.0,80,0.00,,,0.00,Wunderground v.1.15,2013-05-26 08:34:00,
2013-05-26 03:39:00,50.1,44.2,30.04,NNW,332,1.0,4.0,80,0.00,,,0.00,Wunderground v.1.15,2013-05-26 08:39:00,
2013-05-26 03:44:00,50.2,43.9,30.03,NE,52,1.0,2.0,79,0.00,,,0.00,Wunderground v.1.15,2013-05-26 08:44:00,
2013-05-26 03:49:00,50.3,44.0,30.03,North,10,1.0,2.0,79,0.00,,,0.00,Wunderground v.1.15,2013-05-26 08:49:00,
2013-05-26 03:55:00,50.3,44.0,30.03,North,11,1.0,2.0,79,0.00,,,0.00,Wunderground v.1.15,2013-05-26 08:55:00,
2013-05-26 04:00:00,50.4,44.1,30.03,NW,310,1.0,1.0,79,0.00,,,0.00,Wunderground v.1.15,2013-05-26 09:00:00,
2013-05-26 04:05:00,50.4,44.1,30.02,North,8,1.0,2.0,79,0.00,,,0.00,Wunderground v.1.15,2013-05-26 09:05:00,
2013-05-26 04:10:00,50.4,43.8,30.03,NE,39,1.0,1.0,78,0.00,,,0.00,Wunderground v.1.15,2013-05-26 09:10:00,
2013-05-26 04:15:00,50.5,43.9,30.03,NNE,28,2.0,3.0,78,0.00,,,0.00,Wunderground v.1.15,2013-05-26 09:15:00,
2013-05-26 04:21:00,50.4,43.8,30.03,WNW,300,2.0,2.0,78,0.00,,,0.00,Wunderground v.1.15,2013-05-26 09:21:00,
2013-05-26 04:26:00,50.4,43.5,30.03,NNE,20,2.0,3.0,77,0.00,,,0.00,Wunderground v.1.15,2013-05-26 09:26:00,
2013-05-26 04:31:00,50.4,43.5,30.04,NW,316,1.0,1.0,77,0.00,,,0.00,Wunderground v.1.15,2013-05-26 09:31:00,
2013-05-26 04:36:00,50.5,43.6,30.05,NW,323,1.0,3.0,77,0.00,,,0.00,Wunderground v.1.15,2013-05-26 09:36:00,
2013-05-26 04:41:00,50.6,43.7,30.06,NW,316,1.0,2.0,77,0.00,,,0.00,Wunderground v.1.15,2013-05-26 09:41:00,
2013-05-26 04:47:00,50.6,43.3,30.06,North,4,1.0,2.0,76,0.00,,,0.00,Wunderground v.1.15,2013-05-26 09:47:00,
2013-05-26 04:52:00,50.6,43.3,30.06,NNW,330,1.0,2.0,76,0.00,,,0.00,Wunderground v.1.15,2013-05-26 09:52:00,
2013-05-26 04:57:00,50.6,43.3,30.06,NNW,348,1.0,3.0,76,0.00,,,0.00,Wunderground v.1.15,2013-05-26 09:57:00,
2013-05-26 05:02:00,50.7,43.1,30.06,NNW,336,1.0,3.0,75,0.00,,,0.00,Wunderground v.1.15,2013-05-26 10:02:00,
2013-05-26 05:07:00,50.7,43.1,30.07,WNW,283,2.0,4.0,75,0.00,,,0.00,Wunderground v.1.15,2013-05-26 10:07:00,
2013-05-26 05:13:00,50.8,42.8,30.07,NW,314,2.0,3.0,74,0.00,,,0.00,Wunderground v.1.15,2013-05-26 10:13:00,
2013-05-26 05:18:00,50.9,42.9,30.06,NNW,335,2.0,3.0,74,0.00,,,0.00,Wunderground v.1.15,2013-05-26 10:18:00,
2013-05-26 05:23:00,50.9,42.9,30.06,NW,325,2.0,5.0,74,0.00,,,0.00,Wunderground v.1.15,2013-05-26 10:23:00,
2013-05-26 05:28:00,51.0,43.4,30.06,NNE,15,2.0,5.0,75,0.00,,,0.00,Wunderground v.1.15,2013-05-26 10:28:00,
2013-05-26 05:33:00,51.0,43.4,30.06,NNW,328,2.0,2.0,75,0.00,,,0.00,Wunderground v.1.15,2013-05-26 10:33:00,
2013-05-26 05:39:00,51.0,43.4,30.06,NNW,342,2.0,5.0,75,0.00,,,0.00,Wunderground v.1.15,2013-05-26 10:39:00,
2013-05-26 05:44:00,51.1,43.4,30.05,NNE,15,2.0,3.0,75,0.00,,,0.00,Wunderground v.1.15,2013-05-26 10:44:00,
2013-05-26 05:49:00,51.1,43.4,30.06,NNW,341,1.0,3.0,75,0.00,,,0.00,Wunderground v.1.15,2013-05-26 10:49:00,
2013-05-26 05:54:00,51.0,43.4,30.06,NNE,26,1.0,3.0,75,0.00,,,0.00,Wunderground v.1.15,2013-05-26 10:54:00,
2013-05-26 05:59:00,51.0,43.7,30.06,NNE,20,1.0,3.0,76,0.00,,,0.00,Wunderground v.1.15,2013-05-26 10:59:00,
2013-05-26 06:05:00,51.0,43.7,30.07,ENE,64,1.0,3.0,76,0.00,,,0.00,Wunderground v.1.15,2013-05-26 11:05:00,
2013-05-26 06:10:00,51.0,43.4,30.07,North,354,2.0,2.0,75,0.00,,,0.00,Wunderground v.1.15,2013-05-26 11:10:00,
2013-05-26 06:15:00,51.1,43.4,30.08,NNW,340,2.0,2.0,75,0.00,,,0.00,Wunderground v.1.15,2013-05-26 11:15:00,
2013-05-26 06:20:00,51.2,43.5,30.08,NNE,13,2.0,2.0,75,0.00,,,0.00,Wunderground v.1.15,2013-05-26 11:20:00,
2013-05-26 06:25:00,51.2,43.2,30.07,NE,43,2.0,3.0,74,0.00,,,0.00,Wunderground v.1.15,2013-05-26 11:25:00,
2013-05-26 06:31:00,51.3,43.3,30.07,North,350,2.0,5.0,74,0.00,,,0.00,Wunderground v.1.15,2013-05-26 11:31:00,
2013-05-26 06:36:00,51.3,43.3,30.06,North,355,2.0,5.0,74,0.00,,,0.00,Wunderground v.1.15,2013-05-26 11:36:00,
2013-05-26 06:41:00,51.3,42.9,30.06,North,351,2.0,3.0,73,0.00,,,0.00,Wunderground v.1.15,2013-05-26 11:41:00,
2013-05-26 06:46:00,51.4,43.0,30.05,NNW,346,2.0,7.0,73,0.00,,,0.00,Wunderground v.1.15,2013-05-26 11:46:00,
2013-05-26 06:51:00,51.4,43.0,30.04,NE,34,2.0,3.0,73,0.00,,,0.00,Wunderground v.1.15,2013-05-26 11:51:00,
2013-05-26 06:56:00,51.4,43.0,30.04,NNE,19,2.0,3.0,73,0.00,,,0.00,Wunderground v.1.15,2013-05-26 11:56:00,
2013-05-26 07:01:00,51.3,42.9,30.04,NNW,347,2.0,6.0,73,0.00,,,0.00,Wunderground v.1.15,2013-05-26 12:01:00,
2013-05-26 07:06:00,51.3,42.9,30.04,ENE,63,2.0,6.0,73,0.00,,,0.00,Wunderground v.1.15,2013-05-26 12:06:00,
2013-05-26 07:11:00,51.4,42.7,30.05,North,11,2.0,7.0,72,0.00,,,0.00,Wunderground v.1.15,2013-05-26 12:11:00,
2013-05-26 07:16:00,51.4,42.7,30.05,NW,312,2.0,7.0,72,0.00,,,0.00,Wunderground v.1.15,2013-05-26 12:16:00,
2013-05-26 07:21:00,51.5,42.4,30.05,NNW,327,2.0,4.0,71,0.00,,,0.00,Wunderground v.1.15,2013-05-26 12:21:00,
2013-05-26 07:27:00,51.6,42.5,30.05,NNW,344,2.0,4.0,71,0.00,,,0.00,Wunderground v.1.15,2013-05-26 12:27:00,
2013-05-26 07:32:00,51.7,42.6,30.05,NNW,340,2.0,3.0,71,0.00,,,0.00,Wunderground v.1.15,2013-05-26 12:32:00,
2013-05-26 07:37:00,51.7,42.6,30.05,NE,48,2.0,3.0,71,0.00,,,0.00,Wunderground v.1.15,2013-05-26 12:37:00,
2013-05-26 07:42:00,51.8,42.3,30.05,North,1,2.0,3.0,70,0.00,,,0.00,Wunderground v.1.15,2013-05-26 12:42:00,
2013-05-26 07:47:00,51.8,42.7,30.05,NNE,16,2.0,5.0,71,0.00,,,0.00,Wunderground v.1.15,2013-05-26 12:47:00,
2013-05-26 07:53:00,51.9,42.4,30.05,NE,52,2.0,5.0,70,0.00,,,0.00,Wunderground v.1.15,2013-05-26 12:53:00,
2013-05-26 07:58:00,52.0,42.5,30.06,NNE,20,2.0,5.0,70,0.00,,,0.00,Wunderground v.1.15,2013-05-26 12:58:00,
2013-05-26 08:03:00,52.0,42.5,30.06,ENE,61,2.0,3.0,70,0.00,,,0.00,Wunderground v.1.15,2013-05-26 13:03:00,
2013-05-26 08:08:00,52.0,42.5,30.05,NNW,335,2.0,5.0,70,0.00,,,0.00,Wunderground v.1.15,2013-05-26 13:08:00,
2013-05-26 08:13:00,52.0,42.5,30.06,North,349,2.0,3.0,70,0.00,,,0.00,Wunderground v.1.15,2013-05-26 13:13:00,
2013-05-26 08:19:00,52.0,42.9,30.05,NNE,20,2.0,3.0,71,0.00,,,0.00,Wunderground v.1.15,2013-05-26 13:19:00,
2013-05-26 08:24:00,52.0,42.9,30.05,NNE,28,2.0,3.0,71,0.00,,,0.00,Wunderground v.1.15,2013-05-26 13:24:00,
2013-05-26 08:29:00,52.1,43.0,30.06,NNE,12,2.0,3.0,71,0.00,,,0.00,Wunderground v.1.15,2013-05-26 13:29:00,
2013-05-26 08:34:00,52.2,43.1,30.06,NNE,27,2.0,2.0,71,0.00,,,0.00,Wunderground v.1.15,2013-05-26 13:34:00,
2013-05-26 08:39:00,52.4,42.9,30.06,NNW,342,2.0,4.0,70,0.00,,,0.00,Wunderground v.1.15,2013-05-26 13:39:00,
2013-05-26 08:45:00,52.6,43.1,30.05,NW,325,2.0,5.0,70,0.00,,,0.00,Wunderground v.1.15,2013-05-26 13:45:00,
2013-05-26 08:50:00,52.7,43.2,30.05,NE,45,2.0,3.0,70,0.00,,,0.00,Wunderground v.1.15,2013-05-26 13:50:00,
2013-05-26 08:55:00,52.8,43.3,30.05,North,355,2.0,3.0,70,0.00,,,0.00,Wunderground v.1.15,2013-05-26 13:55:00,
2013-05-26 09:00:00,52.9,43.0,30.05,NW,316,2.0,2.0,69,0.00,,,0.00,Wunderground v.1.15,2013-05-26 14:00:00,
2013-05-26 09:05:00,52.9,42.6,30.05,NNE,20,3.0,3.0,68,0.00,,,0.00,Wunderground v.1.15,2013-05-26 14:05:00,
2013-05-26 09:11:00,53.0,42.7,30.05,NNE,19,2.0,3.0,68,0.00,,,0.00,Wunderground v.1.15,2013-05-26 14:11:00,
2013-05-26 09:16:00,53.1,42.4,30.05,North,4,3.0,6.0,67,0.00,,,0.00,Wunderground v.1.15,2013-05-26 14:16:00,
2013-05-26 09:21:00,53.2,42.5,30.05,NW,326,3.0,3.0,67,0.00,,,0.00,Wunderground v.1.15,2013-05-26 14:21:00,
2013-05-26 09:26:00,53.2,42.5,30.05,NW,314,3.0,5.0,67,0.00,,,0.00,Wunderground v.1.15,2013-05-26 14:26:00,
2013-05-26 09:31:00,53.2,42.5,30.05,East,92,3.0,7.0,67,0.00,,,0.00,Wunderground v.1.15,2013-05-26 14:31:00,
2013-05-26 09:37:00,53.2,42.9,30.04,NNW,340,3.0,7.0,68,0.00,,,0.00,Wunderground v.1.15,2013-05-26 14:37:00,
2013-05-26 09:42:00,53.3,43.0,30.03,NNE,26,2.0,3.0,68,0.00,,,0.00,Wunderground v.1.15,2013-05-26 14:42:00,
2013-05-26 09:47:00,53.3,43.4,30.03,ESE,104,3.0,5.0,69,0.00,,,0.00,Wunderground v.1.15,2013-05-26 14:47:00,
2013-05-26 09:52:00,53.3,43.0,30.03,NNE,16,3.0,6.0,68,0.00,,,0.00,Wunderground v.1.15,2013-05-26 14:52:00,
2013-05-26 09:57:00,53.2,44.0,30.03,NNW,328,3.0,7.0,71,0.00,,,0.00,Wunderground v.1.15,2013-05-26 14:57:00,
2013-05-26 10:03:00,52.6,44.2,30.02,NW,319,2.0,5.0,73,0.00,,,0.00,Wunderground v.1.15,2013-05-26 15:03:00,
2013-05-26 10:08:00,52.0,44.3,30.02,NNW,342,3.0,5.0,75,0.00,,,0.00,Wunderground v.1.15,2013-05-26 15:08:00,
2013-05-26 10:13:00,51.8,43.8,30.01,South,190,3.0,6.0,74,0.00,,,0.00,Wunderground v.1.15,2013-05-26 15:13:00,
2013-05-26 10:18:00,51.8,43.8,30.02,NNW,330,2.0,6.0,74,0.00,,,0.00,Wunderground v.1.15,2013-05-26 15:18:00,
2013-05-26 10:23:00,52.0,43.6,30.02,North,1,2.0,3.0,73,0.00,,,0.00,Wunderground v.1.15,2013-05-26 15:23:00,
2013-05-26 10:28:00,52.2,43.1,30.02,NW,309,2.0,4.0,71,0.00,,,0.00,Wunderground v.1.15,2013-05-26 15:28:00,
2013-05-26 10:33:00,52.3,42.8,30.02,North,350,3.0,6.0,70,0.00,,,0.00,Wunderground v.1.15,2013-05-26 15:33:00,
2013-05-26 10:38:00,52.5,43.0,30.02,NE,42,3.0,6.0,70,0.00,,,0.00,Wunderground v.1.15,2013-05-26 15:38:00,
2013-05-26 10:43:00,52.6,42.7,30.03,NNW,330,2.0,3.0,69,0.00,,,0.00,Wunderground v.1.15,2013-05-26 15:43:00,
2013-05-26 10:48:00,52.7,42.8,30.03,NE,39,2.0,3.0,69,0.00,,,0.00,Wunderground v.1.15,2013-05-26 15:48:00,
2013-05-26 10:53:00,52.8,42.9,30.03,North,8,2.0,5.0,69,0.00,,,0.00,Wunderground v.1.15,2013-05-26 15:53:00,
2013-05-26 10:59:00,52.9,43.4,30.03,NNW,332,2.0,10.0,70,0.00,,,0.00,Wunderground v.1.15,2013-05-26 15:59:00,
2013-05-26 11:04:00,52.9,42.6,30.03,NW,321,3.0,4.0,68,0.00,,,0.00,Wunderground v.1.15,2013-05-26 16:04:00,
2013-05-26 11:09:00,53.0,42.7,30.04,North,360,3.0,4.0,68,0.00,,,0.00,Wunderground v.1.15,2013-05-26 16:09:00,
2013-05-26 11:14:00,53.0,43.1,30.04,East,90,3.0,5.0,69,0.00,,,0.00,Wunderground v.1.15,2013-05-26 16:14:00,
2013-05-26 11:19:00,52.9,43.0,30.04,NNW,327,2.0,5.0,69,0.00,,,0.00,Wunderground v.1.15,2013-05-26 16:19:00,
2013-05-26 11:25:00,52.7,43.9,30.05,SSE,150,2.0,3.0,72,0.00,,,0.00,Wunderground v.1.15,2013-05-26 16:25:00,
2013-05-26 11:30:00,52.5,44.1,30.05,NNW,342,3.0,3.0,73,0.00,,,0.00,Wunderground v.1.15,2013-05-26 16:30:00,
2013-05-26 11:35:00,52.3,44.3,30.05,NNE,12,2.0,4.0,74,0.00,,,0.00,Wunderground v.1.15,2013-05-26 16:35:00,
2013-05-26 11:40:00,52.0,44.3,30.06,NNW,347,2.0,2.0,75,0.00,,,0.00,Wunderground v.1.15,2013-05-26 16:40:00,
2013-05-26 11:45:00,51.7,44.4,30.06,WNW,301,2.0,6.0,76,0.00,,,0.00,Wunderground v.1.15,2013-05-26 16:45:00,
2013-05-26 11:51:00,51.5,44.5,30.06,North,5,2.0,3.0,77,0.00,,,0.00,Wunderground v.1.15,2013-05-26 16:51:00,
2013-05-26 11:56:00,51.4,44.4,30.06,NE,43,2.0,3.0,77,0.00,,,0.00,Wunderground v.1.15,2013-05-26 16:56:00,
2013-05-26 12:01:00,51.4,43.7,30.06,NNE,15,2.0,3.0,75,0.00,,,0.00,Wunderground v.1.15,2013-05-26 17:01:00,
2013-05-26 12:06:00,51.3,43.6,30.06,NNE,20,2.0,4.0,75,0.00,,,0.00,Wunderground v.1.15,2013-05-26 17:06:00,
2013-05-26 12:11:00,51.4,44.1,30.06,North,8,2.0,3.0,76,0.00,,,0.00,Wunderground v.1.15,2013-05-26 17:11:00,
2013-05-26 12:17:00,51.6,43.6,30.06,WNW,290,2.0,7.0,74,0.00,,,0.00,Wunderground v.1.15,2013-05-26 17:17:00,
2013-05-26 12:22:00,51.7,43.3,30.05,ESE,108,3.0,4.0,73,0.00,,,0.00,Wunderground v.1.15,2013-05-26 17:22:00,
2013-05-26 12:27:00,51.9,43.5,30.05,NNW,330,3.0,4.0,73,0.00,,,0.00,Wunderground v.1.15,2013-05-26 17:27:00,
2013-05-26 12:32:00,52.0,43.6,30.05,NNW,328,2.0,3.0,73,0.00,,,0.00,Wunderground v.1.15,2013-05-26 17:32:00,
2013-05-26 12:37:00,52.1,43.3,30.05,NE,39,2.0,4.0,72,0.00,,,0.00,Wunderground v.1.15,2013-05-26 17:37:00,
2013-05-26 12:43:00,52.2,43.8,30.05,NNE,27,2.0,4.0,73,0.00,,,0.00,Wunderground v.1.15,2013-05-26 17:43:00,
2013-05-26 12:48:00,52.2,43.4,30.05,NE,56,3.0,6.0,72,0.00,,,0.00,Wunderground v.1.15,2013-05-26 17:48:00,
2013-05-26 12:53:00,52.4,44.0,30.05,East,82,3.0,3.0,73,0.00,,,0.00,Wunderground v.1.15,2013-05-26 17:53:00,
2013-05-26 12:58:00,52.5,44.1,30.04,NNW,338,2.0,4.0,73,0.00,,,0.00,Wunderground v.1.15,2013-05-26 17:58:00,
2013-05-26 13:03:00,52.5,44.1,30.04,NNE,16,3.0,5.0,73,0.00,,,0.00,Wunderground v.1.15,2013-05-26 18:03:00,
2013-05-26 13:09:00,52.7,43.9,30.04,NNW,344,3.0,6.0,72,0.00,,,0.00,Wunderground v.1.15,2013-05-26 18:09:00,
2013-05-26 13:14:00,52.9,44.1,30.04,NNE,21,4.0,4.0,72,0.00,,,0.00,Wunderground v.1.15,2013-05-26 18:14:00,
2013-05-26 13:19:00,53.4,45.0,30.04,North,1,3.0,5.0,73,0.00,,,0.00,Wunderground v.1.15,2013-05-26 18:19:00,
2013-05-26 13:24:00,53.6,44.8,30.04,NNE,26,3.0,9.0,72,0.00,,,0.00,Wunderground v.1.15,2013-05-26 18:24:00,
2013-05-26 13:29:00,53.9,45.1,30.04,NE,36,4.0,9.0,72,0.00,,,0.00,Wunderground v.1.15,2013-05-26 18:29:00,
2013-05-26 13:35:00,54.1,45.3,30.04,NNW,344,3.0,4.0,72,0.00,,,0.00,Wunderground v.1.15,2013-05-26 18:35:00,
2013-05-26 13:40:00,54.2,45.4,30.04,NE,46,2.0,6.0,72,0.00,,,0.00,Wunderground v.1.15,2013-05-26 18:40:00,
2013-05-26 13:45:00,53.9,45.1,30.04,ENE,59,3.0,6.0,72,0.00,,,0.00,Wunderground v.1.15,2013-05-26 18:45:00,
2013-05-26 13:50:00,53.6,45.5,30.04,ENE,78,3.0,3.0,74,0.00,,,0.00,Wunderground v.1.15,2013-05-26 18:50:00,
2013-05-26 13:55:00,53.6,45.9,30.04,NNW,338,3.0,6.0,75,0.00,,,0.00,Wunderground v.1.15,2013-05-26 18:55:00,
2013-05-26 14:00:00,53.6,45.9,30.03,NE,52,3.0,6.0,75,0.00,,,0.00,Wunderground v.1.15,2013-05-26 19:00:00,
2013-05-26 14:05:00,53.4,45.7,30.03,North,11,4.0,6.0,75,0.00,,,0.00,Wunderground v.1.15,2013-05-26 19:05:00,
2013-05-26 14:10:00,53.3,46.3,30.04,NNE,25,4.0,4.0,77,0.00,,,0.00,Wunderground v.1.15,2013-05-26 19:10:00,
2013-05-26 14:15:00,53.0,46.0,30.03,NNW,342,3.0,6.0,77,0.00,,,0.00,Wunderground v.1.15,2013-05-26 19:15:00,
2013-05-26 14:20:00,53.0,46.3,30.02,North,359,3.0,3.0,78,0.00,,,0.00,Wunderground v.1.15,2013-05-26 19:20:00,
2013-05-26 14:25:00,53.3,46.6,30.03,NNE,32,3.0,4.0,78,0.00,,,0.00,Wunderground v.1.15,2013-05-26 19:25:00,
2013-05-26 14:31:00,53.5,46.8,30.02,NE,46,3.0,4.0,78,0.00,,,0.00,Wunderground v.1.15,2013-05-26 19:31:00,
2013-05-26 14:36:00,53.6,46.9,30.03,NNW,339,3.0,4.0,78,0.00,,,0.00,Wunderground v.1.15,2013-05-26 19:36:00,
2013-05-26 14:41:00,53.6,47.2,30.02,NNE,30,3.0,4.0,79,0.00,,,0.00,Wunderground v.1.15,2013-05-26 19:41:00,
2013-05-26 14:46:00,53.7,47.3,30.02,NNW,328,3.0,4.0,79,0.00,,,0.00,Wunderground v.1.15,2013-05-26 19:46:00,
2013-05-26 14:51:00,53.9,47.5,30.01,NW,311,3.0,5.0,79,0.00,,,0.00,Wunderground v.1.15,2013-05-26 19:51:00,
2013-05-26 14:57:00,53.7,47.3,30.01,NNE,32,3.0,5.0,79,0.00,,,0.00,Wunderground v.1.15,2013-05-26 19:57:00,
2013-05-26 15:02:00,53.3,47.0,30.00,NE,36,3.0,4.0,79,0.00,,,0.00,Wunderground v.1.15,2013-05-26 20:02:00,
2013-05-26 15:07:00,53.0,47.3,30.00,NW,324,3.0,6.0,81,0.00,,,0.00,Wunderground v.1.15,2013-05-26 20:07:00,
2013-05-26 15:12:00,52.9,47.2,29.99,NNE,20,4.0,7.0,81,0.00,,,0.00,Wunderground v.1.15,2013-05-26 20:12:00,
2013-05-26 15:17:00,52.9,47.9,29.99,North,7,3.0,7.0,83,0.00,,,0.00,Wunderground v.1.15,2013-05-26 20:17:00,
2013-05-26 15:23:00,53.0,48.0,29.98,NNW,347,3.0,6.0,83,0.00,,,0.00,Wunderground v.1.15,2013-05-26 20:23:00,
2013-05-26 15:28:00,53.2,48.2,29.97,NE,41,3.0,6.0,83,0.00,,,0.00,Wunderground v.1.15,2013-05-26 20:28:00,
2013-05-26 15:33:00,53.2,48.2,29.97,West,277,4.0,6.0,83,0.00,,,0.00,Wunderground v.1.15,2013-05-26 20:33:00,
2013-05-26 15:38:00,53.5,48.5,29.95,NNE,32,4.0,6.0,83,0.00,,,0.00,Wunderground v.1.15,2013-05-26 20:38:00,
2013-05-26 15:43:00,53.7,48.7,29.95,NNW,330,4.0,4.0,83,0.00,,,0.00,Wunderground v.1.15,2013-05-26 20:43:00,
2013-05-26 15:49:00,53.6,48.6,29.95,North,1,5.0,7.0,83,0.00,,,0.00,Wunderground v.1.15,2013-05-26 20:49:00,
2013-05-26 15:54:00,53.6,48.6,29.95,WNW,299,5.0,7.0,83,0.00,,,0.00,Wunderground v.1.15,2013-05-26 20:54:00,
2013-05-26 15:59:00,53.7,48.7,29.95,NNE,23,3.0,7.0,83,0.00,,,0.00,Wunderground v.1.15,2013-05-26 20:59:00,
2013-05-26 16:04:00,53.6,48.6,29.97,NNW,333,3.0,9.0,83,0.00,,,0.00,Wunderground v.1.15,2013-05-26 21:04:00,
2013-05-26 16:09:00,53.7,48.7,29.97,ENE,66,4.0,9.0,83,0.00,,,0.00,Wunderground v.1.15,2013-05-26 21:09:00,
2013-05-26 16:15:00,53.9,49.2,29.97,WNW,283,3.0,4.0,84,0.00,,,0.00,Wunderground v.1.15,2013-05-26 21:15:00,
2013-05-26 16:20:00,54.1,49.4,29.97,North,355,3.0,4.0,84,0.00,,,0.00,Wunderground v.1.15,2013-05-26 21:20:00,
2013-05-26 16:25:00,54.0,49.3,29.97,ENE,65,3.0,4.0,84,0.00,,,0.00,Wunderground v.1.15,2013-05-26 21:25:00,
2013-05-26 16:30:00,54.0,49.3,29.97,ENE,70,3.0,3.0,84,0.00,,,0.00,Wunderground v.1.15,2013-05-26 21:30:00,
2013-05-26 16:35:00,54.1,49.4,29.97,NNW,342,3.0,5.0,84,0.00,,,0.00,Wunderground v.1.15,2013-05-26 21:35:00,
2013-05-26 16:41:00,54.1,49.1,29.97,NE,48,3.0,3.0,83,0.00,,,0.00,Wunderground v.1.15,2013-05-26 21:41:00,
2013-05-26 16:46:00,54.1,49.1,29.97,NNW,333,3.0,6.0,83,0.00,,,0.00,Wunderground v.1.15,2013-05-26 21:46:00,
2013-05-26 16:51:00,54.1,49.4,29.97,NW,319,3.0,3.0,84,0.00,,,0.00,Wunderground v.1.15,2013-05-26 21:51:00,
2013-05-26 16:56:00,54.1,49.4,29.97,North,353,3.0,4.0,84,0.00,,,0.00,Wunderground v.1.15,2013-05-26 21:56:00,
2013-05-26 17:01:00,54.1,49.1,29.97,West,271,3.0,3.0,83,0.00,,,0.00,Wunderground v.1.15,2013-05-26 22:01:00,
2013-05-26 17:07:00,54.1,49.4,29.97,NNW,330,3.0,6.0,84,0.00,,,0.00,Wunderground v.1.15,2013-05-26 22:07:00,
2013-05-26 17:12:00,54.0,49.3,29.97,ENE,58,3.0,5.0,84,0.00,,,0.00,Wunderground v.1.15,2013-05-26 22:12:00,
2013-05-26 17:17:00,54.1,49.4,29.97,NE,34,3.0,5.0,84,0.00,,,0.00,Wunderground v.1.15,2013-05-26 22:17:00,
2013-05-26 17:22:00,54.2,49.5,29.96,ENE,68,3.0,3.0,84,0.00,,,0.00,Wunderground v.1.15,2013-05-26 22:22:00,
2013-05-26 17:27:00,54.6,49.9,29.95,North,353,3.0,4.0,84,0.00,,,0.00,Wunderground v.1.15,2013-05-26 22:27:00,
2013-05-26 17:33:00,55.0,50.3,29.95,NE,44,3.0,4.0,84,0.00,,,0.00,Wunderground v.1.15,2013-05-26 22:33:00,
2013-05-26 17:38:00,55.3,50.2,29.96,WNW,283,2.0,4.0,83,0.00,,,0.00,Wunderground v.1.15,2013-05-26 22:38:00,
2013-05-26 17:43:00,55.4,50.0,29.96,North,352,3.0,5.0,82,0.00,,,0.00,Wunderground v.1.15,2013-05-26 22:43:00,
2013-05-26 17:48:00,55.4,50.0,29.96,NNW,345,4.0,5.0,82,0.00,,,0.00,Wunderground v.1.15,2013-05-26 22:48:00,
2013-05-26 17:53:00,55.4,50.3,29.96,NNW,338,3.0,4.0,83,0.00,,,0.00,Wunderground v.1.15,2013-05-26 22:53:00,
2013-05-26 17:58:00,55.4,50.3,29.97,NNE,27,3.0,5.0,83,0.00,,,0.00,Wunderground v.1.15,2013-05-26 22:58:00,
2013-05-26 18:03:00,55.4,50.3,29.97,West,278,3.0,7.0,83,0.00,,,0.00,Wunderground v.1.15,2013-05-26 23:03:00,
2013-05-26 18:08:00,55.5,50.1,29.97,NNE,12,3.0,7.0,82,0.00,,,0.00,Wunderground v.1.15,2013-05-26 23:08:00,
2013-05-26 18:14:00,55.5,50.4,29.98,NNW,330,4.0,5.0,83,0.00,,,0.00,Wunderground v.1.15,2013-05-26 23:14:00,
2013-05-26 18:19:00,55.5,50.1,29.98,NW,326,3.0,5.0,82,0.00,,,0.00,Wunderground v.1.15,2013-05-26 23:19:00,
2013-05-26 18:24:00,55.4,50.0,29.99,NW,316,2.0,4.0,82,0.00,,,0.00,Wunderground v.1.15,2013-05-26 23:24:00,
2013-05-26 18:29:00,55.5,50.1,29.98,NNW,337,3.0,7.0,82,0.00,,,0.00,Wunderground v.1.15,2013-05-26 23:29:00,
2013-05-26 18:34:00,55.5,50.1,29.98,NNE,20,3.0,7.0,82,0.00,,,0.00,Wunderground v.1.15,2013-05-26 23:34:00,
2013-05-26 18:39:00,55.5,50.1,29.98,WNW,294,3.0,7.0,82,0.00,,,0.00,Wunderground v.1.15,2013-05-26 23:39:00,
2013-05-26 18:44:00,55.5,50.1,29.98,North,360,3.0,7.0,82,0.00,,,0.00,Wunderground v.1.15,2013-05-26 23:44:00,
2013-05-26 18:49:00,55.6,50.2,29.98,East,84,3.0,7.0,82,0.00,,,0.00,Wunderground v.1.15,2013-05-26 23:49:00,
2013-05-26 18:55:00,55.6,50.2,29.98,NW,308,3.0,3.0,82,0.00,,,0.00,Wunderground v.1.15,2013-05-26 23:55:00,
2013-05-26 19:00:00,55.7,50.3,29.98,WNW,290,3.0,4.0,82,0.00,,,0.00,Wunderground v.1.15,2013-05-27 00:00:00,
2013-05-26 19:05:00,55.8,50.4,29.98,North,4,3.0,5.0,82,0.00,,,0.00,Wunderground v.1.15,2013-05-27 00:05:00,
2013-05-26 19:10:00,55.8,50.4,29.98,NNW,344,2.0,2.0,82,0.00,,,0.00,Wunderground v.1.15,2013-05-27 00:10:00,
2013-05-26 19:15:00,55.8,50.4,29.98,NW,322,2.0,4.0,82,0.00,,,0.00,Wunderground v.1.15,2013-05-27 00:15:00,
2013-05-26 19:21:00,55.8,50.4,29.98,NNE,32,3.0,4.0,82,0.00,,,0.00,Wunderground v.1.15,2013-05-27 00:21:00,
2013-05-26 19:26:00,55.8,50.4,29.98,NE,47,3.0,6.0,82,0.00,,,0.00,Wunderground v.1.15,2013-05-27 00:26:00,
2013-05-26 19:31:00,55.9,50.5,29.98,NNE,25,3.0,3.0,82,0.00,,,0.00,Wunderground v.1.15,2013-05-27 00:31:00,
2013-05-26 19:36:00,55.9,50.5,29.98,ENE,70,3.0,4.0,82,0.00,,,0.00,Wunderground v.1.15,2013-05-27 00:36:00,
2013-05-26 19:41:00,56.0,50.6,29.97,NNW,345,2.0,4.0,82,0.00,,,0.00,Wunderground v.1.15,2013-05-27 00:41:00,
2013-05-26 19:47:00,56.0,50.6,29.97,NNW,335,2.0,4.0,82,0.00,,,0.00,Wunderground v.1.15,2013-05-27 00:47:00,
2013-05-26 19:52:00,56.1,50.3,29.98,NNW,335,2.0,4.0,81,0.00,,,0.00,Wunderground v.1.15,2013-05-27 00:52:00,
2013-05-26 19:57:00,56.2,50.4,29.98,NE,51,2.0,4.0,81,0.00,,,0.00,Wunderground v.1.15,2013-05-27 00:57:00,
2013-05-26 20:02:00,56.1,50.7,29.98,NW,309,2.0,2.0,82,0.00,,,0.00,Wunderground v.1.15,2013-05-27 01:02:00,
2013-05-26 20:07:00,56.1,50.7,29.98,NNE,16,2.0,4.0,82,0.00,,,0.00,Wunderground v.1.15,2013-05-27 01:07:00,
2013-05-26 20:13:00,56.1,50.7,29.98,NNE,14,2.0,3.0,82,0.00,,,0.00,Wunderground v.1.15,2013-05-27 01:13:00,
2013-05-26 20:18:00,56.1,50.7,29.97,NE,49,2.0,4.0,82,0.00,,,0.00,Wunderground v.1.15,2013-05-27 01:18:00,
2013-05-26 20:23:00,56.1,50.3,29.97,NNW,334,3.0,5.0,81,0.00,,,0.00,Wunderground v.1.15,2013-05-27 01:23:00,
2013-05-26 20:28:00,56.0,50.3,29.97,NE,44,3.0,5.0,81,0.00,,,0.00,Wunderground v.1.15,2013-05-27 01:28:00,
2013-05-26 20:33:00,55.9,50.2,29.97,NNE,23,2.0,3.0,81,0.00,,,0.00,Wunderground v.1.15,2013-05-27 01:33:00,
2013-05-26 20:39:00,55.9,50.2,29.97,NNW,342,2.0,3.0,81,0.00,,,0.00,Wunderground v.1.15,2013-05-27 01:39:00,
2013-05-26 20:44:00,55.8,50.4,29.97,NNE,33,1.0,2.0,82,0.00,,,0.00,Wunderground v.1.15,2013-05-27 01:44:00,
2013-05-26 20:49:00,55.7,50.3,29.97,ENE,57,1.0,2.0,82,0.00,,,0.00,Wunderground v.1.15,2013-05-27 01:49:00,
2013-05-26 20:54:00,55.8,50.1,29.97,ESE,102,2.0,3.0,81,0.00,,,0.00,Wunderground v.1.15,2013-05-27 01:54:00,
2013-05-26 20:59:00,55.7,50.0,29.97,ENE,75,2.0,3.0,81,0.00,,,0.00,Wunderground v.1.15,2013-05-27 01:59:00,
2013-05-26 21:05:00,55.7,50.3,29.97,NNW,330,2.0,3.0,82,0.00,,,0.00,Wunderground v.1.15,2013-05-27 02:05:00,
2013-05-26 21:10:00,55.6,50.2,29.97,North,357,2.0,2.0,82,0.00,,,0.00,Wunderground v.1.15,2013-05-27 02:10:00,
2013-05-26 21:15:00,55.6,49.9,29.97,NNE,32,2.0,3.0,81,0.00,,,0.00,Wunderground v.1.15,2013-05-27 02:15:00,
2013-05-26 21:20:00,55.6,49.9,29.97,NNW,345,2.0,2.0,81,0.00,,,0.00,Wunderground v.1.15,2013-05-27 02:20:00,
2013-05-26 21:25:00,55.6,49.9,29.97,North,359,2.0,3.0,81,0.00,,,0.00,Wunderground v.1.15,2013-05-27 02:25:00,
2013-05-26 21:30:00,55.7,50.0,29.97,NW,323,2.0,4.0,81,0.00,,,0.00,Wunderground v.1.15,2013-05-27 02:30:00,
2013-05-26 21:35:00,55.7,50.0,29.97,NNE,33,2.0,4.0,81,0.00,,,0.00,Wunderground v.1.15,2013-05-27 02:35:00,
2013-05-26 21:40:00,55.7,50.0,29.97,NNE,13,2.0,2.0,81,0.00,,,0.00,Wunderground v.1.15,2013-05-27 02:40:00,
2013-05-26 21:45:00,55.7,49.6,29.97,NW,326,2.0,3.0,80,0.00,,,0.00,Wunderground v.1.15,2013-05-27 02:45:00,
2013-05-26 21:50:00,55.7,49.6,29.97,NNE,27,2.0,2.0,80,0.00,,,0.00,Wunderground v.1.15,2013-05-27 02:50:00,
2013-05-26 21:56:00,55.7,49.6,29.97,NW,309,2.0,5.0,80,0.00,,,0.00,Wunderground v.1.15,2013-05-27 02:56:00,
2013-05-26 22:01:00,55.8,49.7,29.97,ENE,63,2.0,2.0,80,0.00,,,0.00,Wunderground v.1.15,2013-05-27 03:01:00,
2013-05-26 22:06:00,55.7,49.6,29.96,North,350,2.0,4.0,80,0.00,,,0.00,Wunderground v.1.15,2013-05-27 03:06:00,
2013-05-26 22:11:00,55.7,49.6,29.96,North,349,2.0,5.0,80,0.00,,,0.00,Wunderground v.1.15,2013-05-27 03:11:00,
2013-05-26 22:16:00,55.6,49.5,29.95,North,7,1.0,5.0,80,0.00,,,0.00,Wunderground v.1.15,2013-05-27 03:16:00,
2013-05-26 22:21:00,55.6,49.5,29.95,East,93,2.0,4.0,80,0.00,,,0.00,Wunderground v.1.15,2013-05-27 03:21:00,
2013-05-26 22:27:00,55.5,49.8,29.95,North,5,2.0,4.0,81,0.00,,,0.00,Wunderground v.1.15,2013-05-27 03:27:00,
2013-05-26 22:32:00,55.4,49.7,29.95,NNW,335,2.0,4.0,81,0.00,,,0.00,Wunderground v.1.15,2013-05-27 03:32:00,
2013-05-26 22:38:00,55.3,49.6,29.95,NE,49,2.0,4.0,81,0.00,,,0.00,Wunderground v.1.15,2013-05-27 03:38:00,
2013-05-26 22:43:00,55.4,49.7,29.95,NNW,338,2.0,3.0,81,0.00,,,0.00,Wunderground v.1.15,2013-05-27 03:43:00,
2013-05-26 22:49:00,55.5,49.8,29.95,North,11,3.0,3.0,81,0.00,,,0.00,Wunderground v.1.15,2013-05-27 03:49:00,
2013-05-26 22:54:00,55.5,49.8,29.94,NNE,16,2.0,3.0,81,0.00,,,0.00,Wunderground v.1.15,2013-05-27 03:54:00,
2013-05-26 22:59:00,55.5,49.8,29.94,North,349,2.0,5.0,81,0.00,,,0.00,Wunderground v.1.15,2013-05-27 03:59:00,
2013-05-26 23:01:00,55.5,49.8,29.93,WNW,290,2.0,3.0,81,0.00,,,0.00,Wunderground v.1.15,2013-05-27 04:01:00,
2013-05-26 23:02:00,55.5,49.8,29.93,NNE,26,2.0,3.0,81,0.00,,,0.00,Wunderground v.1.15,2013-05-27 04:02:00,
2013-05-26 23:03:00,55.5,49.8,29.93,NE,43,3.0,3.0,81,0.00,,,0.00,Wunderground v.1.15,2013-05-27 04:03:00,
2013-05-26 23:04:00,55.6,49.9,29.93,North,351,3.0,3.0,81,0.00,,,0.00,Wunderground v.1.15,2013-05-27 04:04:00,
2013-05-26 23:09:00,55.5,49.8,29.92,WNW,295,2.0,5.0,81,0.00,,,0.00,Wunderground v.1.15,2013-05-27 04:09:00,
2013-05-26 23:15:00,55.5,49.8,29.92,North,351,3.0,3.0,81,0.00,,,0.00,Wunderground v.1.15,2013-05-27 04:15:00,
2013-05-26 23:20:00,55.5,49.8,29.92,NNE,18,3.0,3.0,81,0.00,,,0.00,Wunderground v.1.15,2013-05-27 04:20:00,
2013-05-26 23:25:00,55.5,49.8,29.93,NNW,328,2.0,4.0,81,0.00,,,0.00,Wunderground v.1.15,2013-05-27 04:25:00,
2013-05-26 23:30:00,55.5,49.8,29.92,West,271,2.0,2.0,81,0.00,,,0.00,Wunderground v.1.15,2013-05-27 04:30:00,
2013-05-26 23:35:00,55.4,50.0,29.92,North,8,1.0,2.0,82,0.00,,,0.00,Wunderground v.1.15,2013-05-27 04:35:00,
2013-05-26 23:41:00,55.3,49.9,29.91,East,80,2.0,4.0,82,0.00,,,0.00,Wunderground v.1.15,2013-05-27 04:41:00,
2013-05-26 23:46:00,55.2,49.8,29.90,North,357,2.0,4.0,82,0.00,,,0.00,Wunderground v.1.15,2013-05-27 04:46:00,
2013-05-26 23:51:00,55.1,49.7,29.90,ENE,70,3.0,3.0,82,0.00,,,0.00,Wunderground v.1.15,2013-05-27 04:51:00,
2013-05-26 23:56:00,55.0,49.9,29.88,NNE,19,3.0,3.0,83,0.00,,,0.00,Wunderground v.1.15,2013-05-27 04:56:00,